Location: Saint-Maurice-d�Ard�che
(44.5216°N, 4.4002°E)
Time: 12:51:44
(UTC+00:00)

STARLINK-1229 - Pass Details

Date: 30 March 2020
Orbit: 378 x 381 km, 53.0° (Epoch: 27 May)

Event Time Altitude Azimuth Distance (km) Brightness Sun altitude
Rises 18:32:46 0° 242° (WSW) 2,138 7.5 -5.2°
Reaches altitude 10° 18:34:46 10° 245° (WSW) 1,304 6.5 -5.6°
Maximum altitude 18:37:39 66° 329° (NNW) 387 3.1 -6.1°
Drops below altitude 10° 18:40:35 10° 52° (NE) 1,324 5.2 -6.6°
Enters shadow 18:42:18 - 55° (NE) 2,034 6.1 -6.9°
